Location: Medlow Airstrip Trail, Medlow Bath NSW 2780, Australia
(33.6682°S, 150.3233°E)
Time: 19:22:10
(UTC+10:00)

Courier 1B - Visible Passes

Search period start: 18 September 2019 00:00
Search period end: 28 September 2019 00:00
Orbit: 962 x 1209 km, 28.3° (Epoch: 17 September)

Date Brightness Start Highest point End Pass type
(mag) Time Alt. Az. Time Alt. Az. Time Alt. Az.
18 Sep 8.1 19:05:01 10° WNW 19:11:54 47° NNE 19:15:16 27° ENE visible
18 Sep 9.1 20:58:55 10° WNW 21:02:10 28° WNW 21:02:10 28° WNW visible
19 Sep 8.4 18:11:16 10° NW 18:18:10 42° NNE 18:24:40 10° E visible
19 Sep 7.8 20:05:00 10° WNW 20:11:53 56° N 20:11:53 56° N visible
20 Sep 8.0 19:11:05 10° WNW 19:18:14 55° N 19:21:34 30° ENE visible
20 Sep 9.2 21:05:18 10° W 21:08:28 27° WNW 21:08:28 27° WNW visible
21 Sep 8.2 18:17:13 10° WNW 18:24:27 52° N 18:31:14 10° E visible
21 Sep 7.9 20:11:19 10° W 20:18:08 55° NNW 20:18:08 55° NNW visible
22 Sep 8.0 19:17:21 10° WNW 19:24:35 57° N 19:27:47 32° ENE visible
22 Sep 9.4 21:11:47 10° W 21:14:41 24° WNW 21:14:41 24° WNW visible
23 Sep 8.1 18:23:22 10° WNW 18:30:46 58° N 18:37:25 11° ENE visible
23 Sep 8.2 20:17:44 10° W 20:24:19 47° NNW 20:24:19 47° NNW visible
24 Sep 8.1 19:23:41 10° W 19:30:55 53° N 19:33:57 32° NE visible
24 Sep 9.6 21:18:29 10° W 21:20:52 19° WNW 21:20:52 19° WNW visible
25 Sep 8.2 18:29:39 10° W 18:37:06 57° N 18:43:37 12° ENE visible
25 Sep 8.6 20:24:16 10° W 20:30:31 36° NNW 20:30:31 36° NNW visible
26 Sep 8.4 19:30:08 10° W 19:37:11 44° NNW 19:40:10 30° NNE visible
26 Sep 9.9 21:25:41 10° WNW 21:27:04 14° WNW 21:27:04 14° WNW visible
27 Sep 8.4 18:36:02 10° W 18:43:23 50° NNW 18:49:51 12° ENE visible
27 Sep 9.1 20:31:07 10° WNW 20:36:45 26° NNW 20:36:45 26° NNW visible
